Charles City, IA

3:46 AM CST on December 18, 2017 (GMT -0600)
Charles City Municipal

Weather History for KCCY - November, 2013

Change the Weather History Date:

Sunday, November 24, 2013

  Actual Average Record
Temperature  
Mean Temperature 14 °F -  
Max Temperature 24 °F 38 °F 62 °F (2017)
Min Temperature 3 °F 19 °F -2 °F (1950)
Degree Days  
Heating Degree Days 52    
Moisture  
Dew Point 5 °F    
Average Humidity 64    
Maximum Humidity 78    
Minimum Humidity 46    
Precipitation  
Precipitation 0.00 in - - ()
Sea Level Pressure  
Sea Level Pressure 30.47 in    
Wind  
Wind Speed 10 mph (SSW)    
Max Wind Speed 23 mph    
Max Gust Speed 29 mph    
Visibility 10 miles    
Events      
Averages and records for this station are not official NWS values.
T = Trace of Precipitation, MM = Missing Value Source: NWS Daily Summary

Daily Weather History Graph

Daily Weather History Graph

Search for Another Location

Airport or City:

Trip Planner

Search our weather history database for the weather conditions in past years. The results will help you decide how hot, cold, wet, or windy it might be!

Date:

Astronomy

Nov. 24, 2013 Rise Set
Actual Time 7:14 AM CST 4:39 PM CST
Civil Twilight 6:43 AM CST 5:11 PM CST
Nautical Twilight 6:08 AM CST 5:45 PM CST
Astronomical Twilight 5:34 AM CST 6:19 PM CST
Moon 11:11 PM CST (11/24) 11:57 AM CST (11/24)
Length of Visible Light 10h 27m
Length of Day
9h 25m
Waning Gibbous, 60% of the Moon is Illuminated
Nov 24
Waning Gibbous
Nov 25
Last Quarter
Dec 2
New
Dec 9
First Quarter
Dec 17
Full

Hourly Weather History & Observations

Time (CST) Temp. Windchill Dew Point Humidity Pressure Visibility Wind Dir Wind Speed Gust Speed Precip Events Conditions
12:15 AM 5.0 °F -4.1 °F -0.4 °F 78% 30.71 in 10.0 mi WNW 4.6 mph - N/A   Clear
12:35 AM 5.0 °F -4.1 °F -0.4 °F 78% 30.70 in 10.0 mi NW 4.6 mph - N/A   Clear
12:55 AM 5.0 °F -2.1 °F -0.4 °F 78% 30.70 in 10.0 mi WNW 3.5 mph - N/A   Clear
1:15 AM 5.0 °F -4.1 °F -2.2 °F 72% 30.70 in 10.0 mi West 4.6 mph - N/A   Clear
1:35 AM 5.0 °F - -0.4 °F 78% 30.69 in 10.0 mi Calm Calm - N/A   Clear
1:55 AM 5.0 °F -2.1 °F -0.4 °F 78% 30.70 in 10.0 mi NW 3.5 mph - N/A   Clear
2:15 AM 5.0 °F - -0.4 °F 78% 30.70 in 10.0 mi Calm Calm - N/A   Clear
2:35 AM 5.0 °F -2.1 °F -0.4 °F 78% 30.69 in 10.0 mi West 3.5 mph - N/A   Clear
2:55 AM 3.2 °F -6.2 °F -2.2 °F 78% 30.68 in 10.0 mi WSW 4.6 mph - N/A   Clear
3:15 AM 5.0 °F - -0.4 °F 78% 30.68 in 10.0 mi Calm Calm - N/A   Clear
3:35 AM 5.0 °F -5.6 °F -0.4 °F 78% 30.67 in 8.0 mi SSW 5.8 mph - N/A   Clear
3:55 AM 3.2 °F -7.8 °F -2.2 °F 78% 30.66 in 10.0 mi SSW 5.8 mph - N/A   Clear
4:15 AM 3.2 °F -4.2 °F -2.2 °F 78% 30.65 in 10.0 mi South 3.5 mph - N/A   Clear
4:35 AM 5.0 °F - -0.4 °F 78% 30.65 in 10.0 mi Calm Calm - N/A   Clear
4:55 AM 3.2 °F - -2.2 °F 78% 30.66 in 10.0 mi Calm Calm - N/A   Clear
5:15 AM 3.2 °F -4.2 °F -2.2 °F 78% 30.66 in 10.0 mi SSE 3.5 mph - N/A   Clear
5:35 AM 5.0 °F - -2.2 °F 72% 30.66 in 10.0 mi Calm Calm - N/A   Clear
5:55 AM 5.0 °F -5.6 °F -2.2 °F 72% 30.64 in 10.0 mi SSE 5.8 mph - N/A   Clear
6:15 AM 3.2 °F -9.1 °F -2.2 °F 78% 30.64 in 10.0 mi South 6.9 mph - N/A   Clear
6:35 AM 5.0 °F -5.6 °F -2.2 °F 72% 30.64 in 10.0 mi South 5.8 mph - N/A   Clear
6:55 AM 5.0 °F -5.6 °F -0.4 °F 78% 30.64 in 10.0 mi South 5.8 mph - N/A   Clear
7:15 AM 5.0 °F -6.9 °F -2.2 °F 72% 30.63 in 10.0 mi South 6.9 mph - N/A   Clear
7:35 AM 5.0 °F -6.9 °F -2.2 °F 72% 30.63 in 10.0 mi South 6.9 mph - N/A   Clear
7:55 AM 6.8 °F -4.8 °F -0.4 °F 72% 30.63 in 10.0 mi South 6.9 mph - N/A   Clear
8:15 AM 8.6 °F -5.5 °F 1.4 °F 73% 30.63 in 10.0 mi SSW 10.4 mph - N/A   Clear
8:35 AM 10.4 °F -4.1 °F 3.2 °F 73% 30.62 in 10.0 mi SSW 11.5 mph - N/A   Clear
8:55 AM 12.2 °F -3.7 °F 3.2 °F 67% 30.61 in 10.0 mi SSW 15.0 mph - N/A   Clear
9:15 AM 12.2 °F -3.1 °F 3.2 °F 67% 30.60 in 10.0 mi South 13.8 mph - N/A   Clear
9:35 AM 14.0 °F -2.5 °F 5.0 °F 67% 30.59 in 10.0 mi SSW 17.3 mph - N/A   Clear
9:55 AM 14.0 °F -3.0 °F 5.0 °F 67% 30.58 in 10.0 mi South 18.4 mph - N/A   Clear
10:15 AM 15.8 °F -1.1 °F 5.0 °F 62% 30.57 in 10.0 mi SSW 19.6 mph - N/A   Clear
10:35 AM 17.6 °F 1.7 °F 5.0 °F 58% 30.56 in 10.0 mi South 18.4 mph - N/A   Clear
10:55 AM 17.6 °F 2.2 °F 5.0 °F 58% 30.55 in 10.0 mi South 17.3 mph - N/A   Clear
11:15 AM 19.4 °F 4.5 °F 5.0 °F 54% 30.53 in 10.0 mi South 17.3 mph - N/A   Clear
11:35 AM 19.4 °F 4.1 °F 5.0 °F 54% 30.51 in 10.0 mi South 18.4 mph - N/A   Clear
11:55 AM 19.4 °F 5.0 °F 5.0 °F 54% 30.50 in 10.0 mi SSW 16.1 mph 24.2 mph N/A   Clear
12:15 PM 21.2 °F 6.0 °F 5.0 °F 50% 30.48 in 10.0 mi SSW 19.6 mph - N/A   Clear
12:35 PM 21.2 °F 6.4 °F 5.0 °F 50% 30.46 in 10.0 mi SSW 18.4 mph 27.6 mph N/A   Clear
12:55 PM 21.2 °F 6.4 °F 5.0 °F 50% 30.45 in 10.0 mi SSW 18.4 mph 26.5 mph N/A   Clear
1:15 PM 23.0 °F 8.3 °F 5.0 °F 46% 30.43 in 10.0 mi SSW 19.6 mph 28.8 mph N/A   Clear
1:35 PM 23.0 °F 7.2 °F 5.0 °F 46% 30.41 in 10.0 mi SSW 23.0 mph - N/A   Clear
1:55 PM 23.0 °F 8.3 °F 5.0 °F 46% 30.40 in 10.0 mi SSW 19.6 mph 26.5 mph N/A   Clear
2:15 PM 24.8 °F 10.0 °F 6.8 °F 46% 30.38 in 10.0 mi South 21.9 mph 28.8 mph N/A   Clear
2:35 PM 23.0 °F 8.0 °F 6.8 °F 50% 30.37 in 10.0 mi SSW 20.7 mph 27.6 mph N/A   Clear
2:55 PM 23.0 °F 8.3 °F 6.8 °F 50% 30.36 in 10.0 mi SSW 19.6 mph 28.8 mph N/A   Clear
3:15 PM 23.0 °F 7.6 °F 6.8 °F 50% 30.35 in 10.0 mi South 21.9 mph 27.6 mph N/A   Clear
3:35 PM 23.0 °F 8.0 °F 8.6 °F 54% 30.35 in 10.0 mi South 20.7 mph 27.6 mph N/A   Clear
3:55 PM 23.0 °F 8.0 °F 8.6 °F 54% 30.34 in 10.0 mi South 20.7 mph 26.5 mph N/A   Clear
4:15 PM 23.0 °F 9.2 °F 8.6 °F 54% 30.34 in 10.0 mi South 17.3 mph 25.3 mph N/A   Clear
4:35 PM 23.0 °F 8.3 °F 8.6 °F 54% 30.32 in 10.0 mi South 19.6 mph - N/A   Clear
4:55 PM 21.2 °F 6.0 °F 8.6 °F 58% 30.32 in 10.0 mi South 19.6 mph - N/A   Clear
5:15 PM 21.2 °F 6.4 °F 8.6 °F 58% 30.32 in - South 18.4 mph - N/A   Clear
5:35 PM 21.2 °F 6.4 °F 8.6 °F 58% 30.31 in 10.0 mi South 18.4 mph - N/A   Clear
5:55 PM 21.2 °F 7.3 °F 8.6 °F 58% 30.30 in 10.0 mi South 16.1 mph - N/A   Clear
6:15 PM 21.2 °F 6.8 °F 8.6 °F 58% 30.29 in 10.0 mi South 17.3 mph - N/A   Clear
6:35 PM 21.2 °F 7.3 °F 8.6 °F 58% 30.29 in 10.0 mi South 16.1 mph - N/A   Clear
6:55 PM 21.2 °F 6.0 °F 8.6 °F 58% 30.27 in 10.0 mi South 19.6 mph - N/A   Clear
7:15 PM 21.2 °F 6.4 °F 8.6 °F 58% 30.27 in 10.0 mi South 18.4 mph 24.2 mph N/A   Clear
7:35 PM 21.2 °F 6.4 °F 10.4 °F 63% 30.27 in 10.0 mi SSW 18.4 mph 25.3 mph N/A   Clear
7:55 PM 21.2 °F 6.0 °F 10.4 °F 63% 30.25 in 10.0 mi South 19.6 mph 26.5 mph N/A   Clear
8:15 PM 21.2 °F 6.0 °F 10.4 °F 63% 30.24 in 10.0 mi SSW 19.6 mph 25.3 mph N/A   Clear
8:35 PM 21.2 °F 6.4 °F 10.4 °F 63% 30.24 in 10.0 mi SSW 18.4 mph - N/A   Clear
8:55 PM 21.2 °F 6.4 °F 10.4 °F 63% 30.23 in 10.0 mi South 18.4 mph - N/A   Clear
9:15 PM 19.4 °F 4.1 °F 10.4 °F 68% 30.23 in 10.0 mi South 18.4 mph 25.3 mph N/A   Clear
9:35 PM 21.2 °F 7.8 °F 8.6 °F 58% 30.23 in 10.0 mi South 15.0 mph 24.2 mph N/A   Clear
9:55 PM 19.4 °F 4.5 °F 10.4 °F 68% 30.23 in 10.0 mi South 17.3 mph - N/A   Clear
10:15 PM 19.4 °F 3.6 °F 10.4 °F 68% 30.22 in 10.0 mi South 19.6 mph - N/A   Clear
10:35 PM 21.2 °F 6.4 °F 10.4 °F 63% 30.21 in 10.0 mi SSW 18.4 mph 25.3 mph N/A   Mostly Cloudy
10:55 PM 21.2 °F 5.6 °F 10.4 °F 63% 30.20 in 10.0 mi South 20.7 mph 27.6 mph N/A   Mostly Cloudy
11:15 PM 21.2 °F 6.0 °F 10.4 °F 63% 30.20 in 10.0 mi South 19.6 mph 28.8 mph N/A   Mostly Cloudy
11:35 PM 21.2 °F 6.4 °F 10.4 °F 63% 30.19 in 10.0 mi South 18.4 mph 27.6 mph N/A   Mostly Cloudy
11:55 PM 21.2 °F 6.0 °F 10.4 °F 63% 30.18 in 10.0 mi SSW 19.6 mph - N/A   Overcast